Regional Weather Roundup
Issued by NWS

Home | Current Version | Previous Version | Graphics & Text | Print | Product List | Glossary On
Versions: 1 2 3 4 5 6 7 8 9 10 11 12 13 14 15 16 17 18 19 20 21 22 23 24 25 26 27 28 29 30 31 32 33 34 35 36 37 38 39 40 41 42 43 44 45 46 47
000
ASUS43 KDMX 291807
RWRIA

WEATHER ROUNDUP FOR IOWA
NATIONAL WEATHER SERVICE DES MOINES IA
100 PM CDT WED JUL 29 2015

NOTE: "FAIR" INDICATES FEW OR NO CLOUDS BELOW 12,000 FEET WITH NO
SIGNIFICANT WEATHER AND/OR OBSTRUCTIONS TO VISIBILITY.

* - THESE STATIONS ARE NOT NWS STATIONS...THUS NOT UNDER NWS
QUALITY CONTROL.  THEY ALSO DO NOT REPORT WEATHER SUCH
AS PRECIPITATION OR FOG.

IAZ001>003-012>014-020>022-031>034-043>046-291900-
   NORTHWEST IOWA

CITY           SKY/WX    TMP DP  RH WIND       PRES   REMARKS
CARROLL *      SUNNY     79  57  47 W12G20    30.14F HX  80
CHEROKEE *       N/A     78  57  47 W12       30.15S
DENISON *      SUNNY     79  59  50 W13       30.15S HX  80
LE MARS *      SUNNY     79  59  50 W10       30.16F HX  80
ORANGE CITY *  SUNNY     77  55  47 W17       30.15F
SHELDON *      SUNNY     77  59  53 W15       30.13S
SIOUX CITY       N/A     81  57  43 W12       30.15F HX  81
6HR MIN TEMP:  58; 6HR MAX TEMP:  81;

SPENCER          N/A     81  55  40 W18G26    30.13S HX  81
6HR MIN TEMP:  58; 6HR MAX TEMP:  81;

STORM LAKE *   SUNNY     77  57  50 W16G23    30.16F
$$

IAZ055>058-069>071-079>083-090>094-291900-
   SOUTHWEST IOWA

CITY           SKY/WX    TMP DP  RH WIND       PRES   REMARKS
ATLANTIC *     SUNNY     81  54  39 NW13      30.16S HX  80
AUDUBON *      SUNNY     81  61  50 NW5       30.17S HX  81
CLARINDA *     SUNNY     79  63  57 N6G12     30.18R HX  80
COUNCIL BLFS * SUNNY     81  52  36 NW12      30.17F HX  80
CRESTON *      SUNNY     77  57  50 NW12      30.16S HAZE
HARLAN  *      SUNNY     79  59  50 NW13      30.20S HX  80
LAMONI           N/A    N/A N/A N/A MISG      30.15R
RED OAK *      SUNNY     82  57  42 NW10      30.17R HX  82
SHENANDOAH *   SUNNY     81  61  50 N9        30.17S HX  81
$$

IAZ047>049-059>061-072>074-084-291900-
   CENTRAL IOWA

CITY           SKY/WX    TMP DP  RH WIND       PRES   REMARKS
AMES             N/A     79  56  45 NW16G24   30.11F HX  80
6HR MIN TEMP:  64; 6HR MAX TEMP:  79;

ANKENY *       SUNNY     81  57  44 NW16      30.12S HX  81
CHARITON *     SUNNY     79  57  47 NW8       30.14S HX  80
DES MOINES     PTSUNNY   83  51  33 NW17      30.12R HX  81
6HR MIN TEMP:  72; 6HR MAX TEMP:  84;

GRINNELL*        N/A     77  57  50 NW16      30.11S
KNOXVILLE *    SUNNY     81  55  41 NW10G17   30.11S HX  80
MARSHALLTOWN     N/A    N/A N/A N/A MISG      30.10S
PELLA *          N/A     81  62  53 NW12      30.13S HX  82
PERRY *          N/A     79  59  50 NW15G22   30.13F HX  80
$$

IAZ004>006-015-016-023>025-035-036-291900-
   NORTH CENTRAL IOWA

CITY           SKY/WX    TMP DP  RH WIND       PRES   REMARKS
ALGONA *       SUNNY     79  57  47 W18G25    30.11S HX  80
CLARION *      SUNNY     79  57  47 W17G29    30.11S HX  80
ESTHERVILLE      N/A     78  55  44 W14G29    30.10S
6HR MIN TEMP:  57; 6HR MAX TEMP:  78;

FORT DODGE *     N/A     81  57  44 W15G28    30.13F HX  81
MASON CITY       N/A     81  57  43 W22G31    30.09R HX  81
6HR MIN TEMP:  62; 6HR MAX TEMP:  81;

FOREST CITY *  SUNNY     77  54  44 W16G25    30.08S
IOWA FALLS *     N/A     80  55  41 W14G23    30.11F HX  80
$$

IAZ007>011-017>019-026>030-037>042-050>054-066-291900-
   NORTHEAST IOWA

CITY           SKY/WX    TMP DP  RH WIND       PRES   REMARKS
CEDAR RAPIDS     N/A     79  59  50 NW15      30.08S HX  80
6HR MIN TEMP:  67; 6HR MAX TEMP:  80;

CHARLES CITY * SUNNY     79  57  47 W21G26    30.07S HX  80
CLINTON *        N/A     81  57  44 W10       30.08S HX  81
DECORAH *      SUNNY     77  55  47 W8G21     30.03S
DUBUQUE          N/A     81  54  39 NW14      30.06S HX  81
6HR MIN TEMP:  70; 6HR MAX TEMP:  81;

MONTICELLO *   SUNNY     81  55  41 NW10G20   30.06S HX  80
OELWEIN *      SUNNY     79  55  44 NW17G26   30.07F
WATERLOO         N/A     81  54  39 NW16G26   30.06S HX  81
6HR MIN TEMP:  67; 6HR MAX TEMP:  81;

$$

IAZ064-065-067-068-078-291900-
   EAST CENTRAL IOWA

CITY           SKY/WX    TMP DP  RH WIND       PRES   REMARKS
DAVENPORT        N/A     81  57  43 NW14      30.07S HX  81
6HR MIN TEMP:  72; 6HR MAX TEMP:  81;

IOWA CITY        N/A     82  55  39 NW13G20   30.09S HX  81
6HR MIN TEMP:  71; 6HR MAX TEMP:  82;

MT. PLEASANT *   N/A     82  47  28 NW10      30.10S HX  81
MUSCATINE *    SUNNY     82  55  39 NW12      30.08S HX  82
QUAD CITIES      N/A     84  55  36 W13       30.06S HX  83
6HR MIN TEMP:  74; 6HR MAX TEMP:  85;

$$

IAZ062-063-075>077-085>089-095>099-291900-
   SOUTHEAST IOWA

CITY           SKY/WX    TMP DP  RH WIND       PRES   REMARKS
BURLINGTON       N/A     83  60  45 N9        30.09S HX  83
6HR MIN TEMP:  72; 6HR MAX TEMP:  83;

FAIRFIELD *    SUNNY     81  59  47 NW12      30.11S HX  81
FORT MADISON * SUNNY     79  59  50 N9        30.11R HX  80
KEOKUK *       SUNNY     82  61  47 N10       30.09R HX  83
OSKALOOSA *      N/A     78  59  51 NW8       30.12S
CENTERVILLE *  SUNNY     79  59  50 NW13      30.15R HX  80
OTTUMWA          N/A     80  61  52 NW15      30.10S HX  81
6HR MIN TEMP:  70; 6HR MAX TEMP:  81;

WASHINGTON *   SUNNY     81  61  50 NW8       30.11S HX  81
$$

ABBREVIATIONS USED IN REMARKS
   TC - TEMPERATURES IN CELSIUS
  WCI - WIND CHILL INDEX
   HX - HEAT INDEX
  VSB - VISIBILITY
$$



USA.gov is the U.S. government's official web portal to all federal, state and local government web resources and services.